Regional Weather Roundup
Issued by NWS Goodland, KS

Home | Current Version | Previous Version | Text Only | Print | Product List | Glossary Off
Versions: 1 2 3 4 5 6 7 8 9 10 11 12 13 14 15 16 17 18 19 20 21 22 23 24 25 26 27 28 29 30 31 32 33 34 35 36 37 38 39 40 41 42 43 44 45 46 47 48 49 50

000
ASUS43 KGLD 161408
RWRGLD

GOODLAND FORECAST AREA HOURLY WEATHER ROUNDUP
NATIONAL WEATHER SERVICE GOODLAND KS
800 AM MDT MON OCT 16 2017

...OFFICIAL OBSERVATIONS...

CITY           SKY/WX    TMP DP  RH WIND       PRES   REMARKS
GOODLAND KS    CLOUDY    47  29  49 SW13      30.29F
HILL CITY KS   SUNNY     42  35  76 W3        30.34S
IMPERIAL NEB   SUNNY     38  30  73 SW6       30.27F
MCCOOK NEB     CLOUDY    34  31  88 CALM      30.29F
AKRON CO       CLOUDY    47  25  42 W9        30.28S
BURLINGTON CO  CLOUDY    41  31  67 SW6       30.31S
LIMON CO       CLOUDY    29  26  89 N6        30.35F
$$

...UNOFFICIAL OBSERVATIONS...

CITY           SKY/WX    TMP DP  RH WIND       PRES   REMARKS
NORTON KS      SUNNY     41  30  65 SW5       30.30S
SHARON SPRINGS   N/A     39  32  76 SW6         N/A
TRENTON NEB      N/A     40  32  73 CALM        N/A
KIT CARSON CO    N/A     36  28  73 CALM        N/A
YUMA CO        FAIR      34  30  86 SW6       30.28S
$$




USA.gov is the U.S. government's official web portal to all federal, state and local government web resources and services.